Wind_Speed
25 24 24 24 23 23 24 24 24 23 23 22 23 23 24 25 26 26 27 28 29 29 30 30 32 33 35 36 37 38 39 40 42 44 46 46 46 47 47 46 46 46 46 47
25 24 24 24 23 24 24 24 24 24 23 22 23 24 24 25 26 26 27 28 28 29 28 29 30 31 32 33 35 36 37 39 41 43 44 45 45 45 46 45 46 46 46 45
26 25 26 25 23 24 25 25 24 24 23 22 23 24 24 25 25 26 27 27 27 27 28 29 30 30 31 33 34 35 36 37 39 40 41 42 43 43 44 44 44 44 45 45
26 26 27 25 24 24 25 24 24 24 24 23 23 24 24 25 24 25 26 27 27 28 29 30 31 32 32 33 35 35 35 37 38 38 38 40 40 41 42 42 42 43 44 45
25 25 25 24 24 24 24 24 24 24 23 23 23 24 24 24 25 25 26 27 27 28 28 29 30 31 31 33 34 35 36 36 37 37 38 38 38 39 40 41 42 43 44 44
24 23 23 22 23 23 24 24 23 23 23 23 24 24 24 24 25 26 26 27 27 27 28 29 30 31 32 33 33 34 35 34 36 36 37 37 37 38 40 41 42 42 42 42
24 24 23 21 21 22 24 24 23 24 24 24 24 25 25 25 26 27 27 28 28 28 29 30 30 31 33 33 34 34 35 34 34 35 35 35 36 37 38 39 40 40 40 40
23 24 22 21 22 23 23 24 24 25 25 26 26 26 26 26 27 27 28 29 29 28 29 29 30 31 33 33 34 35 34 34 33 33 33 33 34 34 35 35 36 36 37 37
22 22 21 22 23 23 24 24 24 25 25 26 26 27 27 27 27 28 29 29 30 29 28 29 29 30 32 33 33 33 32 31 31 31 32 33 32 32 32 33 33 33 34 35
22 21 22 22 23 24 25 25 26 26 27 27 27 27 27 28 28 29 30 30 30 30 29 29 29 30 30 30 30 30 30 30 31 31 31 31 31 31 31 32 32 32 31 31
22 22 22 22 23 24 25 26 27 26 26 27 27 28 28 28 29 29 30 30 30 30 29 29 28 28 29 29 29 29 29 30 31 31 32 32 32 31 30 29 29 29 29 29
22 22 23 23 23 24 24 25 26 26 27 27 28 28 28 29 29 29 29 28 28 28 28 28 27 27 28 28 28 29 29 30 31 31 30 30 30 30 30 29 29 29 28 28
22 23 24 24 25 25 25 25 26 26 26 27 27 27 27 27 28 28 28 28 28 28 28 28 28 28 28 28 28 29 29 29 29 29 29 30 30 29 28 28 29 29 28 28
22 23 23 24 25 25 25 25 25 26 26 26 26 26 26 26 27 27 28 28 27 27 27 27 27 27 27 27 28 28 29 29 29 29 29 30 29 28 27 27 27 27 28 28
23 24 24 24 24 25 25 25 25 25 25 25 25 26 26 26 26 26 27 27 27 27 27 26 26 26 26 27 27 28 28 29 28 28 29 29 28 28 27 27 26 26 26 26
25 25 25 25 24 24 24 25 25 25 25 25 26 26 27 26 26 26 26 26 25 25 25 25 25 25 25 26 27 27 28 28 27 27 27 27 26 26 26 26 25 24 24 24
25 25 24 24 24 24 24 24 24 25 25 26 26 27 27 27 26 26 25 25 25 25 24 24 25 25 25 26 26 27 27 27 27 27 27 26 25 25 25 24 24 24 24 24
24 24 24 24 24 24 24 25 25 25 26 26 26 27 27 26 26 26 26 26 26 25 25 25 26 26 27 27 27 27 27 27 27 26 26 25 25 24 23 23 23 23 24 24
24 24 24 24 24 24 25 25 26 26 26 26 26 26 25 25 26 26 26 26 26 26 26 27 27 27 27 27 27 27 27 26 26 26 25 24 24 23 23 22 22 22 22 23
25 25 25 25 25 25 25 25 25 25 25 25 25 25 25 25 25 25 25 26 26 27 27 27 27 27 27 28 28 28 27 26 26 25 24 24 23 23 23 23 22 21 21 21
25 25 26 26 26 26 26 26 26 25 25 25 26 26 26 25 25 25 26 26 27 27 27 28 28 28 28 28 28 28 28 27 26 25 24 24 23 23 23 23 23 22 22 22
26 26 26 26 27 27 27 26 26 26 26 26 26 27 27 26 27 27 27 28 28 28 28 28 29 29 29 28 28 28 27 26 25 25 24 24 24 23 23 23 22 22 22 22
26 26 25 25 25 25 25 25 25 25 25 26 26 26 26 26 27 27 27 27 28 27 28 28 29 29 28 28 28 28 26 25 25 24 24 23 23 23 23 22 22 22 21 21
26 26 26 25 25 25 25 25 25 25 25 26 26 26 26 27 27 27 27 27 27 27 27 27 27 26 26 26 26 26 25 24 23 23 22 22 22 21 21 21 21 21 21 21
25 25 26 26 25 25 26 26 26 26 26 26 26 26 27 27 27 27 27 27 27 27 27 27 26 26 25 25 25 25 24 24 23 23 22 22 21 20 20 20 20 19 19 20
25 25 25 26 26 26 26 26 26 26 26 26 26 26 26 26 26 26 26 26 26 26 26 26 25 25 25 25 24 24 24 23 23 22 22 22 21 20 19 19 19 18 18 19
26 26 26 26 26 26 26 26 26 26 26 26 25 25 25 25 24 24 24 24 24 24 24 23 23 23 23 23 23 23 22 22 22 22 22 21 20 20 19 19 19 18 18 18
Wind_Direction
269 269 267 267 266 265 266 270 272 274 274 273 272 274 273 273 274 275 274 274 276 277 274 271 270 266 266 266 268 268 268 267 268 268 268 269 270 271 271 271 271 272 272 272
266 266 266 266 265 265 267 269 272 273 275 275 274 275 276 277 276 276 277 278 278 276 274 273 273 270 269 269 270 271 271 271 270 270 270 271 271 271 271 270 270 271 271 271
267 265 265 265 267 268 269 270 271 273 276 274 274 276 278 280 281 279 278 280 280 276 274 274 273 274 272 271 274 274 274 273 273 273 273 272 272 271 271 272 271 271 271 271
269 265 264 267 268 268 269 269 270 272 273 275 276 277 280 284 285 281 279 280 280 276 274 274 276 276 276 275 275 276 275 274 274 274 274 274 274 274 273 273 271 270 272 273
269 268 267 266 267 268 269 268 269 271 272 275 278 280 282 286 287 286 285 283 281 276 275 275 276 275 278 278 277 277 278 278 276 276 276 276 276 275 274 272 272 272 273 273
269 270 271 270 268 269 270 269 268 269 272 276 278 280 284 286 287 287 287 286 284 279 276 277 276 274 277 279 278 279 280 280 280 278 277 276 275 275 274 273 273 273 273 273
268 267 269 271 270 271 271 271 271 272 273 275 278 280 282 284 287 288 288 287 286 284 281 280 278 276 277 280 282 282 283 284 282 282 281 280 278 276 276 275 274 274 273 273
268 268 271 271 270 271 273 273 273 273 274 275 277 279 281 283 285 287 288 289 288 287 285 283 281 279 279 280 282 282 284 285 284 284 284 283 281 280 277 276 275 274 273 272
268 270 272 271 270 271 272 273 274 275 275 276 278 280 281 283 285 287 288 288 288 287 286 285 284 283 282 282 282 283 284 285 284 285 286 285 284 282 280 279 277 275 274 273
267 269 270 271 271 273 275 276 277 278 278 278 279 281 282 283 286 287 289 289 288 287 287 286 285 286 285 285 284 284 285 286 286 287 289 288 287 287 285 283 281 279 277 275
269 270 271 273 274 276 277 278 279 279 280 279 280 282 282 284 286 288 289 290 289 287 287 287 285 286 286 285 285 285 286 286 287 288 290 289 288 288 286 284 281 279 278 276
272 274 275 275 276 277 278 279 280 281 281 281 282 283 283 285 287 288 290 291 291 290 288 288 286 285 285 285 285 285 285 286 286 288 289 289 288 288 287 285 282 279 277 276
276 277 278 278 277 278 278 278 279 282 283 283 284 285 286 287 287 288 289 290 291 290 289 289 289 287 287 286 286 287 288 288 287 288 289 289 289 287 285 284 282 280 278 277
277 278 279 280 280 279 279 278 279 281 283 283 284 285 287 288 289 289 289 290 290 290 290 290 290 289 289 288 288 288 289 291 291 290 290 290 290 287 285 283 282 280 278 277
278 279 281 281 281 280 279 279 280 282 283 282 283 285 286 287 288 288 289 289 290 290 290 290 291 292 291 290 291 291 292 292 291 290 290 290 289 287 285 284 282 280 278 277
281 282 281 281 281 281 280 280 281 282 282 283 284 284 285 285 286 288 289 289 290 290 289 290 291 293 292 291 292 293 294 293 292 291 290 290 289 288 286 284 282 281 281 280
282 282 282 281 280 281 282 282 283 283 283 283 284 284 284 284 285 286 286 287 288 289 289 289 291 292 294 294 294 294 294 294 293 291 291 291 291 291 289 285 283 282 281 282
285 284 283 283 283 283 283 283 283 282 283 285 286 286 285 285 284 283 283 284 285 287 288 289 290 292 293 294 294 295 295 295 294 293 290 290 290 290 290 287 284 282 281 282
283 283 282 281 281 282 282 283 283 283 283 285 285 286 285 285 285 285 284 284 285 286 287 288 289 291 292 293 293 294 295 295 294 294 291 290 290 289 289 289 288 285 284 283
283 282 281 281 282 283 283 283 283 283 283 284 284 285 285 285 285 285 286 287 288 288 288 288 289 291 293 292 293 293 293 293 294 294 293 291 290 288 288 288 287 286 286 285
284 283 283 283 283 283 284 284 284 284 283 283 283 284 284 284 285 286 287 288 289 289 289 289 290 290 291 292 293 293 293 292 292 292 291 291 290 288 287 286 285 285 285 285
285 284 284 284 284 284 284 284 284 284 283 283 283 284 285 285 286 287 289 290 290 290 290 291 291 290 290 291 293 294 293 292 291 291 291 290 289 288 287 286 286 285 285 283
283 284 284 284 283 284 284 284 285 285 284 283 283 284 285 287 288 289 291 292 292 293 294 294 294 293 291 291 292 293 293 293 292 292 291 290 288 287 287 286 286 286 287 286
283 283 282 282 282 282 283 284 285 285 284 284 284 285 285 287 289 290 291 292 293 294 295 295 295 295 295 295 294 293 293 293 293 293 292 291 290 288 287 287 287 287 286 286
284 284 282 282 282 283 283 284 284 284 284 285 285 285 286 288 289 290 291 291 292 293 294 293 293 293 294 296 295 293 293 292 292 291 291 291 290 289 289 289 289 287 285 285
283 283 282 282 283 283 284 284 284 285 285 285 285 286 287 288 290 291 291 291 292 294 294 293 293 293 295 296 296 294 293 292 291 290 290 289 288 288 288 288 287 286 286 286
283 282 281 281 283 284 285 285 285 285 284 284 285 286 287 288 289 290 291 293 294 294 293 293 293 294 296 298 298 297 296 294 292 290 289 289 288 287 286 287 287 287 287 289
Height
5619 5620 5620 5620 5621 5622 5622 5622 5622 5624 5623 5623 5622 5621 5620 5620 5619 5619 5619 5618 5617 5616 5615 5615 5614 5614 5615 5615 5615 5615 5615 5615 5615 5614 5614 5613 5613 5612 5612 5611 5610 5610 5609 5609
5613 5613 5613 5614 5615 5615 5616 5616 5617 5617 5618 5618 5616 5615 5614 5613 5612 5612 5611 5611 5610 5609 5608 5608 5607 5607 5607 5606 5606 5606 5605 5605 5604 5603 5602 5601 5601 5600 5599 5599 5598 5597 5596 5596
5606 5607 5606 5607 5610 5610 5610 5611 5611 5610 5612 5611 5611 5610 5609 5607 5606 5605 5604 5603 5603 5602 5601 5601 5600 5599 5599 5598 5597 5596 5595 5595 5594 5592 5591 5590 5589 5588 5587 5586 5585 5584 5584 5583
5598 5600 5599 5605 5604 5604 5604 5604 5604 5604 5605 5605 5604 5603 5603 5602 5600 5599 5598 5597 5596 5595 5594 5593 5592 5592 5590 5590 5588 5587 5586 5584 5583 5581 5580 5579 5577 5576 5575 5573 5573 5572 5572 5571
5591 5591 5592 5596 5597 5597 5597 5598 5598 5598 5598 5598 5597 5597 5596 5595 5593 5592 5591 5589 5588 5587 5586 5585 5584 5583 5582 5581 5579 5578 5576 5574 5572 5571 5569 5567 5566 5564 5562 5561 5561 5560 5559 5558
5585 5585 5586 5591 5591 5590 5591 5591 5592 5592 5592 5591 5591 5591 5591 5588 5586 5585 5583 5581 5580 5579 5577 5576 5575 5574 5573 5571 5570 5568 5566 5565 5562 5560 5558 5556 5554 5553 5551 5550 5549 5547 5546 5545
5579 5579 5580 5584 5584 5584 5585 5586 5586 5585 5585 5584 5584 5584 5583 5581 5579 5577 5576 5574 5572 5570 5569 5567 5566 5565 5563 5562 5560 5558 5556 5554 5552 5550 5548 5546 5543 5541 5539 5538 5537 5535 5535 5534
5573 5573 5577 5577 5577 5577 5578 5578 5577 5577 5577 5577 5577 5576 5574 5573 5572 5570 5568 5566 5564 5562 5560 5558 5557 5555 5554 5552 5550 5548 5546 5544 5542 5540 5538 5536 5533 5531 5528 5527 5525 5524 5523 5522
5568 5570 5570 5569 5569 5569 5570 5570 5570 5570 5570 5569 5569 5568 5567 5565 5564 5562 5560 5558 5556 5554 5552 5550 5548 5546 5544 5542 5540 5538 5537 5535 5533 5530 5528 5526 5523 5521 5518 5516 5515 5513 5512 5511
5562 5563 5563 5562 5562 5562 5562 5562 5562 5562 5562 5561 5560 5559 5558 5557 5555 5554 5551 5549 5547 5545 5543 5541 5539 5537 5535 5533 5531 5530 5528 5526 5524 5521 5519 5516 5513 5511 5509 5507 5505 5503 5502 5502
5555 5557 5556 5556 5555 5555 5555 5554 5554 5553 5553 5552 5552 5551 5550 5548 5547 5545 5543 5541 5538 5536 5534 5532 5530 5528 5526 5524 5522 5521 5519 5517 5515 5513 5510 5508 5505 5502 5500 5498 5496 5495 5494 5493
5549 5550 5549 5549 5549 5548 5547 5547 5546 5545 5545 5544 5543 5542 5541 5540 5538 5536 5535 5532 5530 5528 5526 5524 5522 5520 5518 5516 5514 5512 5511 5509 5506 5504 5502 5499 5497 5495 5491 5489 5488 5486 5485 5484
5542 5542 5541 5541 5541 5540 5540 5539 5538 5537 5537 5536 5535 5534 5532 5531 5530 5528 5526 5524 5522 5520 5518 5516 5514 5512 5510 5508 5506 5504 5502 5500 5498 5495 5493 5491 5488 5486 5484 5482 5479 5478 5477 5476
5535 5535 5534 5534 5533 5532 5532 5531 5530 5530 5529 5528 5526 5525 5524 5523 5521 5520 5518 5516 5514 5513 5511 5508 5506 5504 5502 5500 5498 5495 5493 5491 5488 5486 5484 5482 5479 5477 5476 5474 5472 5470 5468 5467
5528 5528 5527 5526 5525 5524 5523 5523 5522 5522 5520 5519 5518 5517 5516 5515 5513 5512 5510 5508 5506 5505 5503 5501 5499 5496 5494 5492 5490 5487 5485 5482 5480 5477 5475 5473 5471 5469 5467 5465 5464 5462 5461 5459
5521 5521 5520 5519 5518 5517 5516 5515 5514 5513 5512 5511 5510 5509 5508 5507 5505 5504 5502 5500 5499 5497 5495 5493 5491 5489 5486 5484 5482 5480 5477 5474 5472 5470 5467 5465 5463 5461 5459 5457 5456 5454 5453 5452
5514 5513 5512 5511 5510 5509 5508 5507 5506 5505 5504 5503 5502 5501 5500 5498 5497 5496 5495 5493 5491 5490 5488 5486 5484 5482 5479 5477 5475 5472 5470 5467 5464 5462 5459 5457 5455 5453 5451 5449 5448 5447 5446 5444
5506 5505 5504 5503 5502 5501 5500 5499 5498 5497 5496 5495 5494 5492 5491 5490 5489 5488 5487 5485 5484 5482 5480 5478 5476 5474 5472 5470 5467 5465 5462 5459 5457 5454 5451 5449 5447 5446 5444 5443 5441 5440 5439 5438
5498 5497 5496 5495 5494 5493 5492 5491 5490 5489 5488 5486 5485 5484 5483 5482 5481 5480 5478 5477 5475 5474 5472 5470 5468 5466 5464 5462 5459 5457 5454 5452 5449 5446 5444 5442 5440 5438 5437 5435 5434 5433 5432 5431
5491 5490 5489 5487 5486 5485 5484 5483 5482 5481 5480 5478 5477 5477 5476 5474 5473 5472 5470 5469 5467 5466 5464 5462 5460 5458 5456 5453 5451 5448 5446 5444 5441 5439 5437 5435 5433 5431 5430 5429 5427 5426 5425 5424
5484 5483 5482 5480 5479 5478 5477 5476 5474 5474 5472 5471 5470 5469 5468 5467 5466 5464 5463 5461 5460 5457 5455 5453 5451 5449 5447 5445 5443 5440 5438 5436 5433 5431 5429 5428 5426 5424 5423 5422 5421 5420 5419 5418
5476 5475 5474 5473 5471 5470 5469 5468 5467 5466 5465 5464 5462 5461 5460 5459 5458 5456 5455 5453 5451 5449 5446 5444 5443 5441 5439 5436 5434 5432 5430 5428 5426 5424 5422 5420 5419 5418 5416 5415 5414 5413 5412 5411
5468 5467 5466 5465 5464 5463 5462 5460 5459 5458 5457 5456 5455 5453 5452 5451 5450 5448 5447 5445 5442 5440 5438 5436 5434 5432 5430 5428 5426 5424 5422 5420 5418 5417 5415 5413 5412 5411 5410 5409 5408 5407 5406 5405
5460 5459 5458 5457 5456 5455 5454 5453 5451 5450 5449 5448 5447 5445 5444 5443 5442 5440 5438 5436 5434 5432 5430 5427 5425 5423 5422 5420 5418 5417 5415 5413 5411 5410 5408 5407 5405 5404 5403 5402 5402 5401 5400 5399
5451 5450 5449 5448 5448 5447 5445 5444 5443 5442 5441 5440 5439 5437 5436 5435 5433 5432 5430 5428 5426 5424 5422 5420 5418 5416 5415 5413 5411 5409 5408 5406 5405 5403 5402 5400 5399 5398 5397 5396 5396 5395 5394 5393
5443 5442 5440 5440 5439 5438 5437 5436 5435 5434 5432 5432 5430 5429 5428 5426 5425 5423 5421 5420 5418 5416 5414 5412 5411 5409 5408 5406 5404 5402 5401 5400 5398 5397 5396 5395 5394 5393 5392 5391 5390 5389 5388 5387
5434 5432 5432 5431 5430 5429 5428 5427 5426 5425 5424 5423 5422 5421 5419 5418 5417 5415 5414 5412 5410 5408 5407 5405 5404 5402 5401 5399 5398 5396 5395 5393 5392 5391 5390 5389 5388 5387 5386 5385 5384 5383 5382 5382